This is the latest recevied weather packets stored in our database for station/object DL3NDS-WX. If no packets are shown the sender has not sent any weather packets the latest 1 day(s).
| Time | Temp. | Humidity | Pressure | Rain* | Wind** | Luminosity | Snow |
|---|---|---|---|---|---|---|---|
| 1777955548 | 12.22° C | 85% | 1011 hPa | 0 mm | 1.34 m/s, 322° | 18 W/m² | - |
| 1777955486 | 12.22° C | 85% | 1010.9 hPa | 0 mm | 1.34 m/s, 326° | 16 W/m² | - |
| 1777955425 | 12.22° C | 85% | 1011 hPa | 0 mm | 1.34 m/s, 330° | 16 W/m² | - |
| 1777955365 | 12.22° C | 85% | 1010.9 hPa | 0 mm | 0.89 m/s, 317° | 16 W/m² | - |
| 1777955316 | 12.22° C | 85% | 1011 hPa | 0 mm | 1.34 m/s, 320° | 14 W/m² | - |
| 1777955281 | 12.22° C | 85% | 1010.9 hPa | 0 mm | 1.79 m/s, 309° | 14 W/m² | - |
| 1777955183 | 12.22° C | 85% | 1011 hPa | 0 mm | 2.24 m/s, 323° | 12 W/m² | - |
| 1777955150 | 12.22° C | 85% | 1011 hPa | 0 mm | 2.68 m/s, 329° | 12 W/m² | - |
| 1777955117 | 12.22° C | 85% | 1010.9 hPa | 0 mm | 2.24 m/s, 334° | 12 W/m² | - |
| 1777955005 | 12.22° C | 85% | 1010.9 hPa | 0 mm | 1.79 m/s, 324° | 11 W/m² | - |
| 1777954936 | 12.22° C | 85% | 1010.9 hPa | 0 mm | 1.79 m/s, 327° | 11 W/m² | - |
| 1777954875 | 12.22° C | 85% | 1010.9 hPa | 0 mm | 3.13 m/s, 324° | 9 W/m² | - |
| 1777954813 | 12.22° C | 85% | 1010.9 hPa | 0 mm | 3.13 m/s, 318° | 9 W/m² | - |
| 1777954752 | 12.22° C | 85% | 1011 hPa | 0 mm | 3.13 m/s, 328° | 9 W/m² | - |
| 1777954691 | 12.22° C | 85% | 1010.9 hPa | 0 mm | 2.68 m/s, 322° | 7 W/m² | - |
| 1777954629 | 12.22° C | 85% | 1010.9 hPa | 0 mm | 2.68 m/s, 316° | 7 W/m² | - |
| 1777954568 | 12.22° C | 85% | 1011 hPa | 0 mm | 2.68 m/s, 318° | 7 W/m² | - |
| 1777954508 | 12.22° C | 85% | 1011 hPa | 0 mm | 1.79 m/s, 326° | 7 W/m² | - |
| 1777954449 | 12.22° C | 85% | 1011 hPa | 0 mm | 1.79 m/s, 323° | 7 W/m² | - |
| 1777954400 | 12.22° C | 84% | 1011 hPa | 0 mm | 2.68 m/s, 328° | 7 W/m² | - |
| 1777954367 | 12.22° C | 84% | 1011 hPa | 0 mm | 3.58 m/s, 327° | 7 W/m² | - |
| 1777954268 | 12.22° C | 84% | 1011 hPa | 0 mm | 4.02 m/s, 327° | 7 W/m² | - |
| 1777954235 | 12.22° C | 84% | 1011 hPa | 0 mm | 3.58 m/s, 318° | 0 W/m² | - |
| 1777954201 | 12.22° C | 84% | 1011 hPa | 0 mm | 3.13 m/s, 320° | 0 W/m² | - |
| 1777954077 | 12.22° C | 84% | 1011.1 hPa | 0 mm | 3.58 m/s, 328° | 0 W/m² | - |
* Rain latest hour (hover to see other rain measurements)
** Current wind speed in m/s (hover to see current wind gust speed)